Meteopurmerend
purmerend
Purmerend - Baaienwijk



My webcam  My webcam


waarschuwing voor Onweer Meer informatie blitzortung!


Regen radar Meer informatie rain snow radar


Bezoek onze andere website:

CandyAppleRed WebdesignWebdesign Purmerend Candy Apple Red

MeteopurmerendBlog

Template documentation
and downloads



Onweer van: 26-07-2021 13:00 tot: 21:00 waarschuwing voor: Onweer niveau: Geel info button
Enkele onweersbuien, lokaal met hagel en veel neerslag in korte tijd.Kans op blikseminslag, hagel en veel neerslag in korte tijd.Verkeer en buitenactiviteiten kunnen hinder ondervinden.Mijd open water en open gebied, schuil niet onder bomen.Volg weerberichten en waarschuwingen.

15 daagse weersverwachting Gjøvik (NO)

  • Overzicht
  • Per uur
  • 15 dagen
  • Extra
  • Vergelijk
  • Kaarten
  • Dagkaart
  • Meer »
  • Info
  • Statistieken
  • Directe link
    Temp 6h Neerslag Wind  
 04:42     22:07    Daglengte: 17:25 Vandaag
20:00
21°
0.3 mm
2
 04:45     22:05    Daglengte: 17:20 Morgen
02:00
17°
4.5 mm
1
08:00
17°
3.5 mm
1
14:00
22°
 
2
20:00
19°
7.3 mm
2
warningclass
 04:47     22:02    Daglengte: 17:15 Woensdag 28 Jul
02:00
17°
11.8 mm
2
warningclass
08:00
17°
24.5 mm
3
14:00
19°
28.9 mm
2
20:00
18°
28.1 mm
1
warningclass
 04:49     22:00    Daglengte: 17:11 Donderdag 29 Jul
02:00
15°
37.2 mm
1
08:00
16°
33.8 mm
1
Locatie info
Region: Oppland
Latitude: 60.7939°N
Longitude: 10.6941°E
127 masl
Postcode: 2815
Temp/Neerslag /Baro Onweer/Dauwpunt
    Temp Baro 1h Neerslag Dauwpunt Wind UV Bewolking  
 04:42     22:07    Daglengte: 17:25 Vandaag
15:00
24°
1015.8 hPa   12.5°
4
Windvlaag: 2.8 m/s
45%
16:00
23°
1015.4 hPa   13.3°
3
Windvlaag: 2.6 m/s
37%
17:00
22°
1014.9 hPa   14.7°
3
Windvlaag: 2.5 m/s
65%
18:00
22°
1014.7 hPa   15.1°
4
Windvlaag: 5.1 m/s
75%
19:00
22°
1015.0 hPa
12%
15.9°
3
Windvlaag: 8.3 m/s
71%
20:00
21°
1015.2 hPa 0.3 mm
33%
17.7°
2
Windvlaag: 7.1 m/s
85%
21:00
20°
1015.2 hPa 0.3 mm
71%
17.6°
1
Windvlaag: 3.2 m/s
70%
22:00
18°
1015.3 hPa 0.9 mm
78%
16.1°
1
Windvlaag: 0 m/s
55% warningclass
23:00
18°
1015.4 hPa 0.4 mm
81%
15.8°
1
Windvlaag: -0.9 m/s
59%
 04:45     22:05    Daglengte: 17:20 Morgen
00:00
17°
1015.2 hPa 0.8 mm
82%
16.0°
1
Windvlaag: -1.4 m/s
82% warningclass
01:00
17°
1015.0 hPa 1.1 mm
82%
15.9°
1
Windvlaag: -1.1 m/s
50%
02:00
17°
1015.0 hPa 1.0 mm
82%
15.7°
1
Windvlaag: -0.8 m/s
80%
03:00
17°
1014.7 hPa 0.6 mm
82%
15.8°
1
Windvlaag: -0.4 m/s
79%
04:00
16°
1014.5 hPa 1.4 mm
82%
15.9°
1
Windvlaag: -0.6 m/s
82% warningclass
05:00
17°
1014.3 hPa
82%
16.0°
1
Windvlaag: -0.5 m/s
65%
06:00
17°
1014.1 hPa 1.5 mm
82%
16.1°
1
Windvlaag: -1.1 m/s
73%
07:00
17°
1013.9 hPa
74%
16.0°
1
Windvlaag: -0.6 m/s
78%
08:00
17°
1013.8 hPa
25%
16.0°
1
Windvlaag: 0.3 m/s
59%
09:00
18°
1013.9 hPa
73%
16.4°
1
Windvlaag: 0.8 m/s
68%
10:00
19°
1013.7 hPa
24%
16.8°
2
Windvlaag: 0.8 m/s
79%
11:00
20°
1013.3 hPa
14%
17.1°
2
Windvlaag: 1.2 m/s
73%
12:00
21°
1012.8 hPa
16%
16.1°
2
Windvlaag: 2.6 m/s
65%
13:00
22°
1012.3 hPa
33%
14.5°
2
Windvlaag: 2.9 m/s
65%
14:00
22°
1011.7 hPa
37%
15.9°
2
Windvlaag: 1.1 m/s
64%
15:00
21°
1011.2 hPa 1.2 mm
82%
18.2°
1
Windvlaag: 2.1 m/s
86%
16:00
20°
1010.9 hPa
81%
19.3°
1
Windvlaag: 2.2 m/s
77%
17:00
20°
1010.3 hPa 1.2 mm
76%
19.2°
1
Windvlaag: 0.1 m/s
84%
18:00
20°
1010.0 hPa 1.4 mm
82%
18.9°
2
Windvlaag: -2.1 m/s
86%
19:00
20°
1009.7 hPa 1.6 mm
82%
18.3°
2
Windvlaag: -0.8 m/s
85% warningclass
20:00
19°
1009.3 hPa 1.9 mm
82%
17.7°
2
Windvlaag: 0.2 m/s
79% warningclass
21:00
19°
1009.2 hPa 2.5 mm
82%
17.4°
1
Windvlaag: -0.1 m/s
85% warningclass
22:00
18°
1009.0 hPa
82%
17.2°
2
Windvlaag: -0.2 m/s
81% warningclass
23:00
18°
1009.0 hPa 2.3 mm
82%
17.0°
2
Windvlaag: 2.5 m/s
78% warningclass
 04:47     22:02    Daglengte: 17:15 Woensdag 28 Jul
00:00
18°
1008.9 hPa 2.5 mm
82%
16.8°
2
Windvlaag: 2.4 m/s
85% warningclass
01:00
17°
1008.3 hPa 2.1 mm
82%
16.7°
2
Windvlaag: -1.9 m/s
77% warningclass
02:00
17°
1007.8 hPa 2.3 mm
82%
16.6°
2
Windvlaag: -2.5 m/s
77% warningclass
03:00
17°
1007.2 hPa 2.7 mm
82%
16.3°
2
Windvlaag: -2.9 m/s
86% warningclass
04:00
17°
1006.6 hPa 2.5 mm
82%
16.2°
2
Windvlaag: -3.4 m/s
86%
05:00
17°
1006.0 hPa 3.1 mm
82%
16.2°
2
Windvlaag: -3.4 m/s
86% warningclass
06:00
17°
1005.7 hPa 3.6 mm
82%
16.1°
2
Windvlaag: -0.5 m/s
86%
07:00
17°
1005.4 hPa 6.7 mm
82%
16.1°
3
Windvlaag: 0.6 m/s
86%
08:00
17°
1005.2 hPa 5.9 mm
82%
16.1°
3
Windvlaag: 1.2 m/s
86%
09:00
17°
1005.4 hPa 4.9 mm
82%
16.0°
2
Windvlaag: 2.1 m/s
85% warningclass
10:00
17°
1005.2 hPa 7.6 mm
82%
16.3°
2
Windvlaag: 2.8 m/s
86% warningclass
11:00
17°
1004.4 hPa 4.0 mm
100%
16.7°
2
Windvlaag: 1.6 m/s
95% warningclass
12:00
18°
1004.0 hPa 4.2 mm
100%
16.9°
2
Windvlaag: 2.7 m/s
95% warningclass
13:00
18°
1003.6 hPa 4.1 mm
100%
16.8°
2
Windvlaag: 2.5 m/s
96%
14:00
19°
1003.1 hPa 4.0 mm
100%
16.5°
2
Windvlaag: 2.2 m/s
87%
15:00
19°
1002.8 hPa 4.0 mm
100%
15.3°
2
Windvlaag: 2.3 m/s
94%
16:00
19°
1002.5 hPa 4.5 mm
100%
14.8°
2
Windvlaag: 2.4 m/s
92% warningclass
17:00
19°
1002.1 hPa 4.2 mm
100%
15.1°
2
Windvlaag: 3.1 m/s
80% warningclass
18:00
19°
1001.6 hPa 4.0 mm
100%
14.8°
2
Windvlaag: 2.7 m/s
88%
19:00
18°
1001.3 hPa 7.1 mm
100%
13.6°
1
Windvlaag: 2.3 m/s
81% warningclass
20:00
18°
1000.9 hPa 4.3 mm
100%
13.0°
1
Windvlaag: 1.8 m/s
89% warningclass
21:00
17°
1000.8 hPa 4.2 mm
100%
14.6°
1
Windvlaag: 2 m/s
86%
22:00
17°
1000.5 hPa 6.7 mm
98%
14.5°
1
Windvlaag: 1.4 m/s
83%
23:00
16°
1000.3 hPa 6.6 mm
96%
14.2°
1
Windvlaag: 1.9 m/s
84%
 04:49     22:00    Daglengte: 17:11 Donderdag 29 Jul
00:00
16°
999.7 hPa 6.7 mm
100%
14.5°
1
Windvlaag: 1.9 m/s
81%
01:00
16°
999.1 hPa 6.5 mm
99%
14.2°
1
Windvlaag: 0.7 m/s
83%
02:00
15°
998.4 hPa 6.4 mm
91%
14.2°
1
Windvlaag: 0.7 m/s
89%
03:00
15°
997.8 hPa 6.7 mm
85%
14.2°
1
Windvlaag: 0.5 m/s
95%
04:00
15°
997.2 hPa 6.9 mm
92%
13.9°
1
Windvlaag: 0.2 m/s
90%
05:00
15°
996.6 hPa 7.1 mm
95%
14.0°
1
Windvlaag: 0.2 m/s
92%
06:00
15°
996.5 hPa 4.5 mm
98%
14.3°
1
Windvlaag: -0.1 m/s
97%
07:00
15°
996.2 hPa 4.3 mm
100%
13.5°
1
Windvlaag: -0.8 m/s
97%
08:00
16°
996.2 hPa 4.2 mm
100%
12.4°
1
Windvlaag: -0.9 m/s
89%
09:00
16°
993.2 hPa 7.0 mm
100%
12.0°
1
Windvlaag: 4.1 m/s
98%
10:00
17°
993.0 hPa 6.8 mm
100%
13.1°
2
Windvlaag: 5.1 m/s
99% warningclass
11:00
18°
992.7 hPa 6.8 mm
100%
11.7°
2
Windvlaag: 5.4 m/s
80%
12:00
18°
992.5 hPa 6.9 mm
100%
10.6°
3
Windvlaag: 6.3 m/s
78%
13:00
18°
992.4 hPa 7.3 mm
100%
13.4°
3
Windvlaag: 7.7 m/s
73% warningclass
14:00
18°
992.1 hPa 7.2 mm
100%
10.2°
3
Windvlaag: 8 m/s
58%
Temp/Neerslag /Baro Onweer/Dauwpunt
    Temp Baro Neerslag Dauwpunt Wind Bewolking  
 04:42     22:07    Daglengte: 17:25 Vandaag
17:00
22°
1014.9 hPa   14.7°
3
65%
20:00
21°
1015.2 hPa 0.3 mm 17.7°
2
85%
23:00
18°
1015.4 hPa 1.6 mm 15.8°
1
59%
 04:45     22:05    Daglengte: 17:20 Morgen
02:00
17°
1015.0 hPa 3.0 mm 15.7°
1
80%
05:00
17°
1014.3 hPa 2.0 mm 16.0°
1
65%
08:00
17°
1013.8 hPa 1.5 mm 16.0°
1
59%
11:00
20°
1013.3 hPa   17.1°
2
73%
14:00
22°
1011.7 hPa   15.9°
2
64%
17:00
20°
1010.3 hPa 2.4 mm 19.2°
1
84%
20:00
19°
1009.3 hPa 4.9 mm 17.7°
2
79% warningclass
23:00
18°
1009.0 hPa 4.8 mm 17.0°
2
78% warningclass
 04:47     22:02    Daglengte: 17:15 Woensdag 28 Jul
02:00
17°
1007.8 hPa 7.0 mm 16.6°
2
77% warningclass
05:00
17°
1006.0 hPa 8.3 mm 16.2°
2
86% warningclass
08:00
17°
1005.2 hPa 16.2 mm 16.1°
3
86%
11:00
17°
1004.4 hPa 16.5 mm 16.7°
2
95% warningclass
14:00
19°
1003.1 hPa 12.4 mm 16.5°
2
87%
17:00
19°
1002.1 hPa 12.8 mm 15.1°
2
80% warningclass
20:00
18°
1000.9 hPa 15.4 mm 13.0°
1
89% warningclass
23:00
16°
1000.3 hPa 17.6 mm 14.2°
1
84%
 04:49     22:00    Daglengte: 17:11 Donderdag 29 Jul
02:00
15°
998.4 hPa 19.6 mm 14.2°
1
89%
05:00
15°
996.6 hPa 20.7 mm 14.0°
1
92%
08:00
16°
996.2 hPa 13.0 mm 12.4°
1
89%
11:00
18°
992.7 hPa 20.5 mm 11.7°
2
80%
14:00
18°
992.1 hPa 21.4 mm 10.2°
3
58%
17:00
18°
993.5 hPa 34.4 mm 14.3°
2
1%
20:00
17°
992.1 hPa 34.8 mm 12.7°
1
1%
23:00
12°
991.8 hPa 34.8 mm 11.2°
1
0%
 04:52     21:57    Daglengte: 17:05 Vrijdag 30 Jul
02:00
11°
991.3 hPa 34.8 mm 10.5°
1
0%
05:00
12°
990.7 hPa 36.5 mm 11.7°
1
1%
08:00
14°
991.5 hPa 37.2 mm 13.1°
1
1%
11:00
17°
992.7 hPa 37.5 mm 14.0°
1
1%
14:00
20°
993.4 hPa 37.5 mm 11.7°
1
1%
17:00
23°
992.9 hPa 37.5 mm 8.2°
2
0%
20:00
18°
995.1 hPa 37.5 mm 9.0°
2
0%
23:00
11°
997.2 hPa 37.5 mm 7.3°
1
0%
 04:54     21:55    Daglengte: 17:01 Zaterdag 31 Jul
02:00
998.8 hPa 37.5 mm 7.0°
1
0%
05:00
999.6 hPa 37.5 mm 7.3°
1
0%
08:00
12°
999.5 hPa 37.5 mm 7.1°
1
1%
11:00
13°
999.6 hPa 37.6 mm 7.7°
1
1%
14:00
16°
998.8 hPa 37.7 mm 7.6°
1
1%
17:00
16°
998.4 hPa 38.0 mm 8.6°
1
1%
20:00
15°
997.7 hPa 38.0 mm 10.5°
1
1%
23:00
12°
997.6 hPa 38.0 mm 9.9°
1
1%
 04:57     21:52    Daglengte: 16:55 Zondag 01 Aug
02:00
12°
996.9 hPa 38.0 mm 9.8°
1
1%
05:00
12°
996.6 hPa 38.0 mm 10.0°
1
1%
08:00
13°
996.5 hPa 38.1 mm 10.7°
1
1%
11:00
13°
997.0 hPa 38.7 mm 10.9°
1
1%
14:00
13°
997.1 hPa 39.4 mm 11.8°
1
1%
17:00
13°
997.2 hPa 40.9 mm 11.8°
1
1%
20:00
12°
997.2 hPa 42.2 mm 11.4°
1
1%
23:00
11°
997.6 hPa 43.0 mm 10.8°
2
1%
 04:59     21:49    Daglengte: 16:50 Maandag 02 Aug
02:00
10°
997.6 hPa 45.2 mm 10.0°
2
1%
05:00
Voelt als: 7.8°
998.3 hPa 45.9 mm 8.2°
2
1%
08:00
10°
998.7 hPa 46.0 mm 8.3°
3
1%
11:00
14°
998.6 hPa 46.0 mm 5.2°
2
1%
14:00
15°
998.3 hPa 92.1 mm 5.0°
0
1%
20:00
13°
998.3 hPa 93.6 mm 9.3°
1
1%
 05:02     21:47    Daglengte: 16:45 Dinsdag 03 Aug
02:00
Voelt als: 8.3°
1000.8 hPa 97.5 mm 8.6°
1
1%
08:00
Voelt als: 9.2°
1001.9 hPa 99.3 mm 7.5°
1
1%
14:00
19°
1000.6 hPa 99.4 mm 3.1°
1
0%
20:00
16°
1001.0 hPa 99.6 mm 6.9°
1
1%
 05:04     21:44    Daglengte: 16:40 Woensdag 04 Aug
02:00
Voelt als: 7.7°
1004.8 hPa 99.6 mm 5.1°
1
1%
08:00
12°
1004.9 hPa 99.6 mm 5.1°
1
0%
14:00
19°
1000.9 hPa 99.6 mm 5.2°
2
1%
20:00
12°
998.4 hPa 101.3 mm 11.3°
2
1%
 05:07     21:41    Daglengte: 16:34 Donderdag 05 Aug
02:00
12°
995.2 hPa 117.1 mm 11.8°
0
1%
08:00
12°
994.1 hPa 122.2 mm 11.3°
0
1%
14:00
18°
1006.9 hPa 0.3 mm 10.2°
1
73%
20:00
16°
1006.2 hPa 1.4 mm 11.2°
1
76%
 05:09     21:39    Daglengte: 16:30 Vrijdag 06 Aug
02:00
11°
1007.5 hPa 1.4 mm 9.0°
1
67%
08:00
13°
1006.9 hPa 1.1 mm 9.8°
1
66%
14:00
18°
1005.6 hPa 2.3 mm 10.7°
0
72%
20:00
16°
1004.9 hPa 1.3 mm 11.5°
1
78%
 05:12     21:36    Daglengte: 16:24 Zaterdag 07 Aug
02:00
11°
1006.0 hPa 1.2 mm 9.6°
1
71%
08:00
13°
1005.5 hPa 0.8 mm 10.4°
1
77%
14:00
18°
1004.6 hPa 1.5 mm 11.9°
1
73%
20:00
16°
1004.4 hPa 1.9 mm 12.2°
0
77%
 05:14     21:33    Daglengte: 16:19 Zondag 08 Aug
02:00
11°
1006.3 hPa 0.4 mm 10.1°
0
70%
08:00
13°
1006.6 hPa 1.5 mm 10.6°
0
76%
14:00
18°
1006.2 hPa 1.8 mm 11.5°
1
75%
20:00
17°
1006.3 hPa 1.4 mm 12.6°
1
76%
 05:17     21:30    Daglengte: 16:13 Maandag 09 Aug
02:00
12°
1008.1 hPa 0.6 mm 10.2°
0
72%
08:00
13°
1008.3 hPa 0.6 mm 11.0°
0
76%
14:00
19°
1007.9 hPa 1.1 mm 11.3°
1
72%
20:00
17°
1008.1 hPa 1.5 mm 12.2°
1
70%
 05:19     21:27    Daglengte: 16:08 Dinsdag 10 Aug
02:00
12°
1009.9 hPa 0.7 mm 10.3°
0
63%
08:00
13°
1010.0 hPa   10.9°
1
63%
14:00
19°
1009.5 hPa 1.7 mm 12.2°
0
65%
  CAPE Lifted Index Hail Supercell Tornado SRH 3km CL BTM PRES CL TOP PRES Swiss DWD icon SMHI TS
 04:42     22:07    Daglengte: 17:25 Vandaag
15:00 7 J/kg 0.8 K 0 % 0 % 0 % 0 m²/s² 0 0 5.45 3
16:00 8 J/kg 0.8 K 0 % 0 % 0 % 0 m²/s² 0 0 4.13 3
17:00 25 J/kg 0.2 K 0 % 0 % 0 % 0 m²/s² 0 0 3.02 3
18:00 135 J/kg -0.8 K 0 % 0 % 0 % 0 m²/s² 0 0 0.97 3
19:00 109 J/kg -0.5 K 0 % 0 % 0 % 0 m²/s² 0 0 1.21 3
20:00 289 J/kg -1.2 K 0 % 0 % 0 % 0 m²/s² 0 0 0.69 3
21:00 320 J/kg -1.7 K 0 % 0 % 0 % 0 m²/s² 0 0 -0.59 3
22:00 222 J/kg -1.4 K 0 % 0 % 0 % 0 m²/s² 0 0 0.31 95
23:00 169 J/kg -2.1 K 0 % 0 % 0 % 0 m²/s² 0 0 -0.84 3
 04:45     22:05    Daglengte: 17:20 Morgen
00:00 281 J/kg -1.6 K 0 % 0 % 0 % 0 m²/s² 0 0 -1.12 95
01:00 306 J/kg -1.2 K 0 % 0 % 0 % 0 m²/s² 0 0 -0.69 80
02:00 207 J/kg -0.7 K 0 % 0 % 0 % 0 m²/s² 0 0 0.05 80
03:00 93 J/kg 0.1 K 0 % 0 % 0 % 0 m²/s² 0 0 0.31 45
04:00 86 J/kg 0.3 K 0 % 0 % 0 % 0 m²/s² 0 0 0.3 95
05:00 67 J/kg 0.3 K 0 % 0 % 0 % 0 m²/s² 0 0 0.3 80
06:00 0 J/kg 0.1 K 0 % 0 % 0 % 0 m²/s² 0 0 0.58 80
07:00 0 J/kg 0.5 K 0 % 0 % 0 % 0 m²/s² 0 0 1.76 61
08:00 0 J/kg 0.4 K 0 % 0 % 0 % 0 m²/s² 0 0 2.29 3
09:00 37 J/kg 0.4 K 0 % 0 % 0 % 0 m²/s² 0 0 1.33 3
10:00 111 J/kg 0.3 K 0 % 0 % 0 % 0 m²/s² 0 0 0.33 3
11:00 99 J/kg 0.0 K 0 % 0 % 0 % 0 m²/s² 0 0 0.45 3
12:00 72 J/kg 0.3 K 0 % 0 % 0 % 0 m²/s² 0 0 0.3 3
13:00 120 J/kg 0.0 K 0 % 0 % 0 % 0 m²/s² 0 0 0.3 3
14:00 185 J/kg -0.2 K 0 % 0 % 0 % 0 m²/s² 0 0 0.16 3
15:00 21 J/kg 0.8 K 0 % 0 % 0 % 0 m²/s² 0 0 0.8 80
16:00 1 J/kg -1.5 K 0 % 0 % 0 % 0 m²/s² 0 0 -1.32 61
17:00 378 J/kg -1.4 K 0 % 0 % 0 % 0 m²/s² 0 0 0.73 61
18:00 843 J/kg -2.8 K 0 % 0 % 0 % 0 m²/s² 0 0 -1.3 80
19:00 1008 J/kg -3.5 K 0 % 0 % 0 % 0 m²/s² 0 0 -2.45 80
20:00 814 J/kg -2.8 K 0 % 0 % 0 % 0 m²/s² 0 0 -2.23 95
21:00 247 J/kg -1.6 K 0 % 0 % 0 % 0 m²/s² 0 0 -0.79 95
22:00 213 J/kg -1.6 K 0 % 0 % 0 % 0 m²/s² 0 0 -0.49 95
23:00 185 J/kg -1.1 K 0 % 0 % 0 % 0 m²/s² 0 0 -0.05 95
 04:47     22:02    Daglengte: 17:15 Woensdag 28 Jul
00:00 125 J/kg -0.7 K 0 % 0 % 0 % 0 m²/s² 0 0 0.11 95
01:00 53 J/kg 0.0 K 0 % 0 % 0 % 0 m²/s² 0 0 0.54 95
02:00 131 J/kg 0.2 K 0 % 0 % 0 % 0 m²/s² 0 0 0.23 95
03:00 129 J/kg -0.2 K 0 % 0 % 0 % 0 m²/s² 0 0 -0.02 95
04:00 77 J/kg 0.4 K 0 % 0 % 0 % 0 m²/s² 0 0 0.4 61
05:00 14 J/kg 1.3 K 0 % 0 % 0 % 0 m²/s² 0 0 1.33 95
06:00 0 J/kg 1.2 K 0 % 0 % 0 % 0 m²/s² 0 0 1.47 63
07:00 0 J/kg 1.5 K 0 % 0 % 0 % 0 m²/s² 0 0 1.59 63
08:00 0 J/kg 1.2 K 0 % 0 % 0 % 0 m²/s² 0 0 1.32 55
09:00 49 J/kg 1.2 K 0 % 0 % 0 % 0 m²/s² 0 0 1.23 95
10:00 24 J/kg 1.1 K 0 % 0 % 0 % 0 m²/s² 0 0 1.49 95
11:00 56 J/kg 1.1 K 0 % 0 % 0 % 0 m²/s² 0 0 1.49 95
12:00 77 J/kg 0.5 K 0 % 0 % 0 % 0 m²/s² 0 0 1.22 95
13:00 39 J/kg 0.8 K 0 % 0 % 0 % 0 m²/s² 0 0 1.61 80
14:00 26 J/kg 1.1 K 0 % 0 % 0 % 0 m²/s² 0 0 2 80
15:00 78 J/kg 0.7 K 0 % 0 % 0 % 0 m²/s² 0 0 1.75 80
16:00 80 J/kg 0.2 K 0 % 0 % 0 % 0 m²/s² 0 0 1.82 95
17:00 118 J/kg -0.2 K 0 % 0 % 0 % 0 m²/s² 0 0 1.24 95
18:00 133 J/kg -0.4 K 0 % 0 % 0 % 0 m²/s² 0 0 0.83 80
19:00 217 J/kg -0.4 K 0 % 0 % 0 % 0 m²/s² 0 0 0.47 95
20:00 169 J/kg -0.5 K 0 % 0 % 0 % 0 m²/s² 0 0 0.61 95
21:00 136 J/kg -0.2 K 0 % 0 % 0 % 0 m²/s² 0 0 0.79 80
22:00 120 J/kg -0.2 K 0 % 0 % 0 % 0 m²/s² 0 0 0.61 80
23:00 212 J/kg -1.3 K 0 % 0 % 0 % 0 m²/s² 0 0 -0.58 80
 04:49     22:00    Daglengte: 17:11 Donderdag 29 Jul
00:00 168 J/kg -1.5 K 0 % 0 % 0 % 0 m²/s² 0 0 -0.69 80
01:00 60 J/kg -1.6 K 0 % 0 % 0 % 0 m²/s² 0 0 -0.88 45
02:00 13 J/kg -2.2 K 0 % 0 % 0 % 0 m²/s² 0 0 -1.69 45
03:00 0 J/kg -2.5 K 0 % 0 % 0 % 0 m²/s² 0 0 -1.93 80
04:00 0 J/kg -2.8 K 0 % 0 % 0 % 0 m²/s² 0 0 -1.03 80
05:00 0 J/kg -2.6 K 0 % 0 % 0 % 0 m²/s² 0 0 -0.92 80
06:00 0 J/kg -1.9 K 0 % 0 % 0 % 0 m²/s² 0 0 -0.61 61
07:00 0 J/kg -1.0 K 0 % 0 % 0 % 0 m²/s² 0 0 0.08 61
08:00 213 J/kg -1.2 K 0 % 0 % 0 % 0 m²/s² 0 0 -0.54 61
09:00 462 J/kg -2.3 K 0 % 0 % 0 % 0 m²/s² 0 0 -1.55 61
10:00 673 J/kg -3.0 K 0 % 0 % 0 % 0 m²/s² 0 0 -2.01 3
11:00 584 J/kg -2.7 K 0 % 0 % 0 % 0 m²/s² 0 0 -1.68 3
12:00 403 J/kg -1.7 K 0 % 0 % 0 % 0 m²/s² 0 0 -1.19 3
13:00 631 J/kg -2.6 K 0 % 0 % 0 % 0 m²/s² 0 0 -2.03 80
14:00 293 J/kg -1.5 K 0 % 0 % 0 % 0 m²/s² 0 0 -0.72 80
Temp Baro Wind Neerslag
  EWN Forecast EWN WRFDA DWD ICON FMI HIRLAM MET Norway GFS
 04:42     22:07    Daglengte: 17:25 Vandaag
17:00 22.4° 1014.9 hPa 3.1 m/s 0.0 mm 25.5° 1014.0 hPa 3.6 m/s 0.0 mm 24.3° 1014.6 hPa 3.7 m/s -2.0 mm 21.7° 1016.4 hPa 1.6 m/s 0.0 mm 26.1° 1014.5 hPa 2.9 m/s
20:00 20.7° 1015.2 hPa 2.4 m/s 0.3 mm 24.6° 1013.0 hPa 2.8 m/s 0.0 mm 21.2° 1014.5 hPa 2.5 m/s 0.1 mm 20.5° 1015.6 hPa 0.8 m/s 0.0 mm 22.2° 1014.0 hPa 1.5 m/s
23:00 17.5° 1015.4 hPa 1.3 m/s 1.6 mm 20.0° 1013.1 hPa 3.5 m/s 0.9 mm 16.6° 1015.6 hPa 0.8 m/s 1.9 mm 17.8° 1015.6 hPa 1.0 m/s 0.0 mm 16.8° 1014.5 hPa 1.3 m/s
 04:45     22:05    Daglengte: 17:20 Morgen
02:00 16.6° 1015.0 hPa 1.0 m/s 3.0 mm 17.3° 1013.2 hPa 2.1 m/s 4.0 mm 16.3° 1015.1 hPa 0.7 m/s 4.5 mm 16.5° 1015.0 hPa 0.9 m/s 0.0 mm 16.3° 1014.8 hPa 1.1 m/s
05:00 16.5° 1014.3 hPa 1.3 m/s 2.0 mm 17.2° 1012.8 hPa 3.0 m/s 6.8 mm 16.4° 1013.9 hPa 0.6 m/s 4.4 mm 16.2° 1014.5 hPa 1.2 m/s 0.0 mm 16.1° 1014.3 hPa 0.9 m/s
08:00 17.2° 1013.8 hPa 0.9 m/s 1.5 mm 18.8° 1012.1 hPa 3.5 m/s 11.5 mm 17.5° 1013.4 hPa 0.3 m/s 1.5 mm 17.0° 1014.2 hPa 1.8 m/s 0.0 mm 16.9° 1014.2 hPa 0.6 m/s
11:00 19.8° 1013.3 hPa 1.9 m/s 0.0 mm 23.3° 1010.5 hPa 4.4 m/s 11.5 mm 19.9° 1012.6 hPa 2.3 m/s 0.0 mm 19.6° 1013.7 hPa 1.6 m/s 0.0 mm 18.3° 1013.4 hPa 0.8 m/s
14:00 22.3° 1011.7 hPa 2.0 m/s 0.0 mm 22.0° 1010.1 hPa 6.1 m/s 11.6 mm 22.7° 1011.1 hPa 1.6 m/s 0.0 mm 23.2° 1012.3 hPa 2.7 m/s 0.0 mm 21.3° 1011.7 hPa 1.6 m/s
17:00 20.4° 1010.3 hPa 1.2 m/s 2.4 mm 20.8° 1007.4 hPa 4.4 m/s 14.2 mm 21.1° 1009.9 hPa 0.4 m/s 1.0 mm 20.3° 1011.3 hPa 1.5 m/s 0.0 mm 18.0° 1011.2 hPa 1.9 m/s
20:00 18.8° 1009.3 hPa 1.8 m/s 4.9 mm 20.8° 1006.8 hPa 5.0 m/s 15.5 mm 18.3° 1009.5 hPa 1.5 m/s 3.1 mm 19.6° 1009.8 hPa 1.6 m/s 0.0 mm 16.9° 1009.6 hPa 2.1 m/s
23:00 18.0° 1009.0 hPa 2.3 m/s 4.8 mm 18.9° 1007.4 hPa 4.0 m/s 15.9 mm 17.4° 1008.7 hPa 2.9 m/s 9.8 mm 18.8° 1009.2 hPa 1.6 m/s 0.0 mm 17.0° 1009.2 hPa 2.6 m/s
 04:47     22:02    Daglengte: 17:15 Woensdag 28 Jul
02:00 17.2° 1007.8 hPa 1.8 m/s 7.0 mm 17.6° 1006.6 hPa 2.5 m/s 16.3 mm 17.0° 1007.9 hPa 1.7 m/s 8.6 mm 17.8° 1008.2 hPa 1.7 m/s 0.0 mm 16.6° 1008.3 hPa 1.1 m/s
05:00 16.8° 1006.0 hPa 2.1 m/s 8.3 mm 16.8° 1005.5 hPa 2.4 m/s 18.7 mm 16.7° 1005.8 hPa 0.7 m/s 6.0 mm 17.6° 1007.1 hPa 2.9 m/s 0.0 mm 16.3° 1006.8 hPa 0.8 m/s
08:00 16.5° 1005.2 hPa 2.6 m/s 16.2 mm 16.7° 1004.4 hPa 2.2 m/s 30.8 mm 16.5° 1004.8 hPa 3.3 m/s 22.6 mm 17.0° 1006.9 hPa 2.5 m/s 0.0 mm 16.8° 1005.9 hPa 0.7 m/s
11:00 17.2° 1004.4 hPa 2.0 m/s 16.5 mm 17.3° 1003.8 hPa 2.0 m/s 47.0 mm 17.1° 1004.3 hPa 1.7 m/s 16.9 mm 17.8° 1005.1 hPa 0.7 m/s
14:00 18.8° 1003.1 hPa 2.3 m/s 12.4 mm 18.7° 1002.1 hPa 2.0 m/s 54.7 mm 19.1° 1002.9 hPa 1.8 m/s 2.4 mm 19.9° 1004.2 hPa 1.5 m/s
17:00 19.1° 1002.1 hPa 1.7 m/s 12.8 mm 20.3° 1000.0 hPa 1.0 m/s 55.6 mm 19.2° 1002.0 hPa 1.5 m/s 3.5 mm 19.3° 1003.2 hPa 1.6 m/s
20:00 18.0° 1000.9 hPa 1.5 m/s 15.4 mm 21.0° 997.6 hPa 1.6 m/s 55.7 mm 17.6° 1000.8 hPa 0.5 m/s 3.0 mm 18.4° 1002.2 hPa 1.2 m/s
23:00 16.4° 1000.3 hPa 0.8 m/s 17.6 mm 18.4° 997.3 hPa 1.6 m/s 55.9 mm 16.1° 999.8 hPa 0.5 m/s 2.3 mm 15.3° 1001.8 hPa 0.9 m/s
 04:49     22:00    Daglengte: 17:11 Donderdag 29 Jul
02:00 15.5° 998.4 hPa 0.8 m/s 19.6 mm 16.8° 996.2 hPa 2.3 m/s 56.5 mm 15.3° 997.6 hPa 0.7 m/s 1.2 mm 13.6° 1000.9 hPa 0.7 m/s
05:00 14.8° 996.6 hPa 0.8 m/s 20.7 mm 13.9° 995.3 hPa 0.9 m/s 57.3 mm 15.2° 995.4 hPa 0.7 m/s 2.5 mm 12.8° 1000.0 hPa 0.3 m/s
08:00 15.7° 996.2 hPa 0.9 m/s 13.0 mm 17.8° 995.6 hPa 1.2 m/s 57.4 mm 15.4° 993.3 hPa 0.9 m/s 2.7 mm 14.8° 998.3 hPa 1.2 m/s
11:00 17.6° 992.7 hPa 2.0 m/s 20.5 mm 20.4° 995.0 hPa 3.8 m/s 58.6 mm 16.9° 992.1 hPa 1.6 m/s 1.5 mm 15.6° 997.6 hPa 0.8 m/s
14:00 18.3° 992.1 hPa 2.9 m/s 21.4 mm 20.2° 994.9 hPa 6.0 m/s 61.4 mm 17.8° 991.3 hPa 2.1 m/s 1.4 mm 16.3° 995.9 hPa 1.9 m/s
17:00 17.7° 993.5 hPa 2.0 m/s 34.4 mm 17.7° 993.5 hPa 2.0 m/s 34.4 mm
20:00 16.7° 992.1 hPa 1.3 m/s 34.8 mm 16.7° 992.1 hPa 1.3 m/s 34.8 mm
23:00 11.6° 991.8 hPa 1.3 m/s 34.8 mm 11.6° 991.8 hPa 1.3 m/s 34.8 mm
 04:52     21:57    Daglengte: 17:05 Vrijdag 30 Jul
02:00 10.8° 991.3 hPa 1.0 m/s 34.8 mm 10.8° 991.3 hPa 1.0 m/s 34.8 mm
05:00 12.0° 990.7 hPa 1.3 m/s 36.5 mm 12.0° 990.7 hPa 1.3 m/s 36.5 mm
08:00 13.6° 991.5 hPa 1.2 m/s 37.2 mm 13.6° 991.5 hPa 1.2 m/s 37.2 mm
11:00 16.7° 992.7 hPa 1.3 m/s 37.5 mm 16.7° 992.7 hPa 1.3 m/s 37.5 mm
14:00 20.1° 993.4 hPa 0.5 m/s 37.5 mm 20.1° 993.4 hPa 0.5 m/s 37.6 mm
17:00 23.4° 992.9 hPa 1.8 m/s 37.5 mm 23.4° 992.9 hPa 1.8 m/s 37.6 mm
20:00 17.5° 995.1 hPa 1.8 m/s 37.5 mm 17.5° 995.1 hPa 1.8 m/s 37.6 mm
23:00 11.5° 997.2 hPa 0.7 m/s 37.5 mm 11.5° 997.2 hPa 0.7 m/s 37.6 mm
 04:54     21:55    Daglengte: 17:01 Zaterdag 31 Jul
02:00 9.4° 998.8 hPa 0.8 m/s 37.5 mm 9.4° 998.8 hPa 0.8 m/s 37.6 mm
05:00 9.4° 999.6 hPa 0.6 m/s 37.5 mm 9.4° 999.6 hPa 0.6 m/s 37.6 mm
08:00 12.3° 999.5 hPa 1.0 m/s 37.5 mm 12.3° 999.5 hPa 1.0 m/s 37.6 mm
11:00 13.0° 999.6 hPa 0.7 m/s 37.6 mm 13.0° 999.6 hPa 0.7 m/s 37.6 mm
14:00 16.0° 998.8 hPa 1.0 m/s 37.7 mm 16.0° 998.8 hPa 1.0 m/s 37.7 mm
17:00 16.1° 998.4 hPa 1.3 m/s 38.0 mm 16.1° 998.4 hPa 1.3 m/s 38.0 mm
20:00 14.6° 997.7 hPa 1.4 m/s 38.0 mm 14.6° 997.7 hPa 1.4 m/s 38.0 mm
23:00 11.9° 997.6 hPa 1.1 m/s 38.0 mm 11.9° 997.6 hPa 1.1 m/s 38.0 mm
 04:57     21:52    Daglengte: 16:55 Zondag 01 Aug
02:00 12.4° 996.9 hPa 1.0 m/s 38.0 mm 12.4° 996.9 hPa 1.0 m/s 38.0 mm
05:00 12.3° 996.6 hPa 0.7 m/s 38.0 mm 12.3° 996.6 hPa 0.7 m/s 38.0 mm
08:00 13.2° 996.5 hPa 1.0 m/s 38.1 mm 13.2° 996.5 hPa 1.0 m/s 38.1 mm
11:00 12.9° 997.0 hPa 1.3 m/s 38.7 mm 12.9° 997.0 hPa 1.3 m/s 38.7 mm
14:00 13.1° 997.1 hPa 1.3 m/s 39.4 mm 13.1° 997.1 hPa 1.3 m/s 39.4 mm
17:00 12.6° 997.2 hPa 1.2 m/s 40.9 mm 12.6° 997.2 hPa 1.2 m/s 40.9 mm
20:00 12.1° 997.2 hPa 1.3 m/s 42.2 mm 12.1° 997.2 hPa 1.3 m/s 42.2 mm
23:00 11.2° 997.6 hPa 1.5 m/s 43.0 mm 11.2° 997.6 hPa 1.5 m/s 43.0 mm
 04:59     21:49    Daglengte: 16:50 Maandag 02 Aug
02:00 10.3° 997.6 hPa 1.9 m/s 45.2 mm 10.3° 997.6 hPa 1.9 m/s 45.2 mm
05:00 9.0° 998.3 hPa 2.2 m/s 45.9 mm 9.0° 998.3 hPa 2.2 m/s 45.9 mm
08:00 10.1° 998.7 hPa 2.6 m/s 46.0 mm 10.1° 998.7 hPa 2.6 m/s 46.0 mm
11:00 13.8° 998.6 hPa 2.1 m/s 46.0 mm 13.8° 998.6 hPa 2.1 m/s 46.0 mm
14:00 14.7° 998.3 hPa 0.1 m/s 46.1 mm 14.7° 998.3 hPa 0.1 m/s 46.1 mm
20:00 12.8° 998.3 hPa 0.9 m/s 47.2 mm 12.8° 998.3 hPa 0.9 m/s 47.2 mm
 05:02     21:47    Daglengte: 16:45 Dinsdag 03 Aug
02:00 8.8° 1000.8 hPa 1.5 m/s 49.4 mm 8.8° 1000.8 hPa 1.5 m/s 49.4 mm
08:00 9.3° 1001.9 hPa 1.2 m/s 49.6 mm 9.3° 1001.9 hPa 1.2 m/s 49.6 mm
14:00 18.6° 1000.6 hPa 1.1 m/s 49.8 mm 18.6° 1000.6 hPa 1.1 m/s 49.8 mm
20:00 15.6° 1001.0 hPa 1.2 m/s 49.8 mm 15.6° 1001.0 hPa 1.2 m/s 49.8 mm
 05:04     21:44    Daglengte: 16:40 Woensdag 04 Aug
02:00 8.0° 1004.8 hPa 1.2 m/s 49.8 mm 8.0° 1004.8 hPa 1.2 m/s 49.8 mm
08:00 11.6° 1004.9 hPa 0.6 m/s 49.8 mm 11.6° 1004.9 hPa 0.6 m/s 49.8 mm
14:00 18.8° 1000.9 hPa 2.2 m/s 49.8 mm 18.8° 1000.9 hPa 2.2 m/s 49.8 mm
20:00 11.7° 998.4 hPa 1.7 m/s 51.4 mm 11.7° 998.4 hPa 1.7 m/s 51.4 mm
 05:07     21:41    Daglengte: 16:34 Donderdag 05 Aug
02:00 11.9° 995.2 hPa 0.3 m/s 60.5 mm 11.9° 995.2 hPa 0.3 m/s 60.5 mm
08:00 11.7° 994.1 hPa 0.5 m/s 61.2 mm 11.7° 994.1 hPa 0.5 m/s 61.2 mm
14:00 17.9° 1006.9 hPa 0.8 m/s 0.3 mm
20:00 16.2° 1006.2 hPa 0.8 m